Location: Roland
(31.1349°N, 85.4372°W)
Time: 04:58:33
(UTC+00:00)

Courier 1B - Pass Details

Date: 23 April 2021
Orbit: 962 x 1209 km, 28.3° (Epoch: 07 May)

Event Time Altitude Azimuth Distance (km) Brightness Sun altitude
Rises 14:16:23 0° 209° (SSW) 3,950 10.5 39.8°
Reaches altitude 10° 14:20:17 10° 191° (S) 2,942 10.1 40.6°
Maximum altitude 14:24:45 17° 152° (SSE) 2,376 10.2 41.6°
Drops below altitude 10° 14:29:04 10° 113° (ESE) 2,831 11.0 42.5°
Sets 14:32:41 0° 94° (E) 3,740 11.3 43.2°
